{"data":{"norad_id":47699,"intl_designator":"2021-015A","name":"AMAZONIA 1","alt_names":[],"object_type":"PAYLOAD","status":"ACTIVE","operator":null,"country":"BRAZ","launch_date":"2021-02-28","launch_site_code":"SRILR","launch_vehicle":null,"mission":null,"orbit_class":"UNKNOWN","rcs_meters":null,"size_class":null,"mass_kg":null,"dimensions":null,"purposes":[],"wikipedia_slug":null,"has_3d_model":false,"image_url":null,"decayed_at":null,"tle_current":{"epoch":"2026-05-25T04:08:17.883744Z","epoch_age_seconds":53445,"freshness":"FRESH","line1":"1 47699U 21015A   26145.17242921  .00000176  00000+0  68477-4 0  9999","line2":"2 47699  98.4318 218.1486 0001766 264.4998  95.5990 14.40806245275333","mean_motion":14.40806245,"eccentricity":0.0001766,"inclination_deg":98.4318,"raan_deg":218.1486,"arg_perigee_deg":264.4998,"mean_anomaly_deg":95.599,"bstar":6.8477e-5,"rev_number":27533,"period_min":99.944042094293,"perigee_km":754.57600657168,"apogee_km":757.09572578802,"semimajor_km":7133.9728661798,"source":"CELESTRAK","updated_at":"2026-05-25T13:37:56.515234Z"}}}